Vorticity
22 21 26 30 25 13 3 4 12 14 13 16 13 3 2 9 16 23 19 8 5 10 8 2 5 11 9 4 3 3 4 6 6 7 6 5 6 5 6 8 9 9 9 10 10 8 9 9 9 9 8 6 6 6 8 11 12 12 10 8 8 8 9 9 9 10 10 8 8 8 6 4 4 4 4 4 4 5 5 4 3 4 3 3 4
23 20 22 30 28 16 5 4 13 18 12 9 13 9 2 5 15 21 16 7 6 13 12 4 6 11 6 1 2 3 5 6 6 8 8 7 7 7 8 10 11 11 10 9 8 8 9 9 9 9 8 6 6 6 8 10 12 12 9 7 7 8 9 9 10 12 10 6 7 8 6 5 5 3 3 4 4 6 6 5 4 3 3 3 3
20 27 26 22 19 18 10 3 12 20 9 4 15 13 4 6 11 12 13 11 9 11 9 2 5 9 4 0 4 6 6 7 8 8 9 10 9 9 10 11 11 11 10 10 9 9 9 9 10 10 8 7 7 6 7 9 12 14 11 8 8 9 9 9 11 11 8 6 6 7 6 4 4 4 4 4 5 6 6 5 4 3 3 3 3
9 19 26 25 20 15 5 -2 10 17 6 5 14 12 8 11 8 9 18 19 11 10 9 3 5 10 5 3 8 9 8 9 9 9 9 9 9 9 10 11 12 11 10 10 9 8 9 9 10 9 8 7 6 6 7 7 10 15 16 12 10 10 9 9 11 11 9 7 5 4 4 3 4 5 5 5 6 7 6 5 4 4 4 4 4
6 5 12 24 27 18 4 0 11 17 9 6 7 5 9 13 8 7 17 19 11 10 10 4 6 11 7 7 11 9 7 8 7 8 8 8 8 9 10 11 11 11 10 9 9 9 9 9 10 10 8 7 7 6 6 6 8 13 17 14 11 12 11 9 9 9 7 6 3 2 2 2 4 5 5 6 6 6 6 5 5 4 4 4 4
10 6 3 8 15 17 12 5 9 17 16 10 4 2 8 14 12 8 11 12 7 13 15 6 8 13 8 8 12 7 5 6 5 7 8 8 9 10 11 12 10 10 10 9 9 9 9 9 10 10 8 7 7 7 6 6 6 10 14 13 10 10 11 9 7 5 4 4 3 2 2 2 3 5 5 6 6 6 6 6 5 5 4 5 6
10 11 10 4 -2 1 8 9 10 13 13 11 7 5 6 13 14 8 9 9 6 22 30 12 4 10 7 7 10 7 6 5 5 9 9 10 12 11 11 11 10 10 9 9 10 9 8 9 9 10 9 8 7 7 6 6 6 7 10 11 9 7 7 7 6 5 4 4 3 2 2 3 4 5 6 7 7 7 8 7 6 5 4 5 6
11 10 13 12 1 -4 1 7 10 11 11 9 7 6 8 17 20 11 8 8 7 22 32 15 4 5 2 3 6 6 6 4 4 9 10 11 12 10 10 10 9 11 10 9 10 9 9 9 9 10 9 8 8 7 6 7 7 8 8 9 10 8 5 4 4 4 3 3 4 4 6 7 7 8 8 8 8 9 9 8 6 4 4 4 5
12 9 9 12 11 6 6 10 10 10 12 9 5 7 8 13 18 12 8 9 7 13 17 12 7 -3 -13 -4 6 6 6 5 5 9 10 9 9 8 10 10 9 10 10 9 10 10 10 9 8 9 8 8 8 7 7 7 6 8 9 9 9 8 6 4 4 6 5 3 5 7 8 9 7 6 7 8 9 9 8 7 5 4 4 5 7
10 9 7 8 9 7 8 11 11 10 12 9 8 13 12 9 10 10 11 11 9 10 11 10 9 -2 -13 -3 7 8 9 6 4 9 11 7 5 7 11 12 12 11 9 10 10 10 10 9 8 8 8 8 8 7 7 6 5 6 8 7 7 9 10 10 9 10 8 6 6 7 8 8 5 3 5 7 9 8 6 6 6 5 3 4 7
11 10 8 6 7 7 7 8 10 12 12 10 10 11 10 11 13 14 15 13 9 9 12 17 19 8 -3 1 4 5 12 9 2 8 13 6 1 5 11 11 10 10 9 10 10 9 9 9 8 8 7 7 8 7 7 7 6 7 7 7 6 6 8 9 8 8 8 6 6 5 5 5 5 5 6 6 6 5 4 4 5 5 3 1 3
11 11 9 7 6 8 9 8 9 11 11 10 13 13 9 10 15 18 15 11 10 8 12 24 29 15 3 4 5 6 11 10 4 5 6 4 0 2 9 12 10 9 9 8 8 8 7 7 7 7 6 6 7 8 9 10 10 10 10 10 9 8 9 7 5 4 4 5 5 6 5 5 6 6 6 6 6 5 3 3 3 5 5 3 4
12 11 11 10 7 7 10 12 13 13 13 11 11 14 14 10 13 18 12 7 12 14 13 18 19 10 7 8 10 14 14 7 3 3 3 4 4 2 6 11 10 8 8 7 7 8 7 8 8 8 8 9 10 11 13 13 11 9 9 9 9 11 12 11 10 9 7 6 6 6 7 7 7 7 7 7 8 7 6 6 5 5 5 5 5
14 14 13 13 11 8 8 11 14 16 18 16 9 10 17 15 13 17 11 7 13 14 8 6 4 6 11 10 9 17 18 7 1 2 3 4 4 3 6 11 11 9 8 7 8 9 10 10 11 12 12 12 12 12 12 11 9 6 7 9 10 11 11 10 11 11 9 8 8 8 9 9 10 9 8 8 7 7 8 8 8 7 5 4 4
12 14 15 14 14 14 11 9 13 18 21 17 10 10 17 17 17 19 11 8 14 16 12 7 4 8 12 8 7 14 17 12 5 1 1 4 6 6 6 8 11 10 8 7 8 9 10 11 11 13 13 11 10 9 7 6 4 2 3 6 7 9 9 8 8 8 8 10 14 14 13 12 10 9 7 6 5 6 8 9 9 8 6 5 5
10 10 11 10 11 14 14 11 12 19 24 20 14 14 14 11 14 14 8 8 15 20 19 9 1 6 9 5 4 9 11 12 9 4 1 3 8 9 5 6 11 13 10 7 6 7 8 9 9 10 9 8 5 4 3 2 2 3 4 5 6 7 8 8 9 9 8 8 8 8 9 9 9 8 7 7 6 6 7 7 6 5 4 5 5
8 10 10 9 8 9 12 12 12 20 24 16 12 13 8 9 18 15 5 7 16 20 17 4 -7 -1 9 7 3 8 13 13 11 10 7 2 3 6 3 3 9 14 12 7 4 4 5 5 6 6 6 5 4 3 2 2 2 4 6 5 5 5 7 8 9 10 9 7 6 6 8 8 8 10 11 10 9 8 6 5 5 5 5 6 5
7 9 10 11 9 8 10 11 13 22 21 10 11 12 -0 6 37 47 23 7 11 16 14 7 -6 -12 -1 9 7 8 15 13 8 14 17 9 3 3 3 2 8 15 14 8 5 4 3 3 4 6 6 7 7 7 7 7 8 8 7 4 2 5 9 12 11 9 8 8 8 8 8 8 8 8 7 6 5 5 5 5 6 6 5 5 3
7 7 10 12 9 8 11 9 12 21 22 22 33 30 6 -1 25 45 32 15 13 10 6 12 6 -13 -9 9 13 11 14 9 4 8 12 11 10 10 6 2 6 13 12 8 6 4 3 5 6 8 9 10 9 9 9 9 9 7 7 6 7 9 11 11 10 10 9 7 5 5 6 7 7 6 5 4 3 3 4 4 5 5 5 4 3
6 6 8 10 10 9 9 8 10 16 23 33 36 21 3 -0 7 16 23 28 30 18 8 14 10 -10 -7 12 17 17 16 11 9 9 4 3 9 11 7 4 9 14 12 8 7 5 6 8 8 8 9 8 7 7 7 6 6 9 13 13 14 13 12 12 13 12 10 8 7 7 7 6 6 6 5 5 5 5 6 5 6 6 5 3 2
6 6 6 8 10 10 8 9 10 9 18 36 33 9 -3 2 6 11 15 18 24 24 17 11 -3 -17 -6 8 10 17 20 14 14 15 9 7 10 9 8 8 10 11 9 6 6 6 6 6 6 8 10 9 9 9 8 8 11 15 16 12 10 10 8 9 10 9 8 8 8 8 7 6 6 6 6 6 6 6 6 5 6 5 2 1 2
5 6 6 7 8 8 9 10 10 11 20 31 28 15 9 4 3 10 8 4 17 30 23 7 -10 -17 -7 1 4 16 22 18 17 17 13 12 10 6 7 10 10 10 9 7 5 4 2 0 2 6 6 5 9 13 14 15 14 13 11 9 8 8 6 5 6 6 8 10 9 9 9 7 6 5 5 6 6 6 7 7 6 5 2 3 5
7 7 6 6 7 8 9 10 11 15 21 20 13 10 14 11 6 10 17 20 24 23 15 8 -0 -9 -8 -0 7 14 19 21 22 17 10 7 6 7 10 11 10 8 6 5 5 4 5 7 8 7 5 6 12 13 12 12 10 8 8 8 8 7 5 6 6 6 7 6 5 5 5 4 6 6 7 7 7 7 8 6 4 4 5 6 7
9 9 8 7 6 7 8 8 10 11 12 20 30 28 22 15 0 -2 20 39 31 13 7 11 7 -3 -6 0 7 12 20 26 18 7 7 11 11 13 13 8 6 8 7 8 9 7 7 9 8 6 7 12 15 12 10 9 8 8 9 9 8 6 5 5 4 3 3 3 3 5 5 6 8 8 8 8 8 7 7 6 6 7 8 8 6
9 8 8 8 8 9 9 6 8 9 5 13 27 23 10 4 -6 -8 14 37 34 18 9 6 2 -1 -0 2 3 7 22 32 18 1 7 17 10 5 7 8 7 6 -0 -5 -2 5 9 8 9 14 18 18 18 16 12 7 5 6 7 8 7 6 3 3 3 3 3 5 6 7 8 8 8 7 7 8 9 9 11 11 11 9 6 5 4
7 7 9 9 7 9 12 9 8 10 8 8 12 10 3 2 3 6 13 20 22 20 16 10 5 4 4 5 3 -0 11 32 28 3 -7 2 4 1 4 6 1 -1 3 13 24 31 26 18 18 22 20 14 10 7 3 2 4 8 8 5 2 -1 -3 1 4 5 5 6 6 7 7 7 7 7 8 10 12 12 11 9 7 4 3 2 3
12 10 9 10 9 9 11 12 10 10 10 9 9 10 10 8 7 9 9 7 10 17 21 21 18 15 13 14 13 5 5 24 39 25 0 -7 -4 -2 0 5 8 14 24 34 36 28 17 10 10 9 6 4 5 7 9 11 13 11 5 2 1 -2 -4 2 7 7 6 7 8 8 8 8 9 10 11 12 10 8 5 4 3 3 3 3 4
16 15 13 12 12 10 8 9 12 12 12 12 10 9 10 10 8 8 7 4 3 6 11 15 15 15 14 11 12 16 12 10 23 28 12 -5 -4 7 17 25 28 26 20 14 9 4 1 2 4 5 6 9 10 10 9 5 0 -4 -8 -9 -6 -4 -0 6 10 10 9 10 10 10 11 12 12 11 10 7 5 3 3 3 3 4 5 6 7
12 14 15 14 13 11 9 11 13 13 11 11 11 10 8 6 5 7 7 5 5 5 7 10 11 13 15 11 9 16 18 12 11 16 14 13 21 29 29 23 14 9 8 7 6 5 6 10 14 14 11 8 3 1 -1 -5 -7 -6 -5 -2 2 7 12 14 13 12 12 12 12 13 13 11 9 7 5 4 3 3 4 4 5 7 8 8 7
8 11 14 15 15 15 14 12 11 11 11 10 10 11 10 9 11 12 10 7 10 12 9 7 8 12 22 30 32 29 28 27 29 29 31 34 29 15 4 2 4 8 13 14 11 12 15 13 6 -1 -4 -4 -4 -3 -1 -0 1 2 5 9 12 13 13 13 12 13 13 12 11 10 8 6 5 4 4 4 5 5 6 7 8 8 7 7 7
8 10 12 13 14 15 16 13 9 8 9 9 8 9 11 12 13 15 13 7 7 9 7 4 6 14 23 28 29 24 13 3 4 11 16 18 14 7 6 15 20 15 8 3 -0 2 3 -4 -11 -11 -6 -2 -1 -0 1 5 8 8 9 11 11 12 13 14 13 12 10 9 7 6 5 5 5 5 5 6 7 8 9 9 8 7 7 7 8
10 10 10 11 11 11 13 15 14 12 12 12 8 4 5 8 10 12 12 7 5 7 7 3 4 16 24 17 7 2 -8 -21 -18 -3 5 7 14 19 15 10 5 -2 -7 -5 -2 0 1 -0 1 4 5 4 5 7 7 8 8 8 10 12 14 15 15 13 10 8 6 5 5 6 6 6 6 6 8 8 8 8 8 7 7 7 7 8 9
12 13 12 11 11 12 12 12 12 9 10 14 14 7 1 1 3 7 8 6 2 4 8 9 7 11 17 15 5 -1 -8 -16 -12 1 4 0 6 12 5 -4 -5 -1 4 8 8 6 6 6 6 6 6 7 8 8 8 9 11 14 17 17 16 13 10 7 6 5 5 5 6 6 7 7 8 9 9 8 7 7 6 6 7 6 7 9 11
10 11 13 14 14 13 13 13 12 7 3 5 10 11 6 -1 -3 1 7 9 5 0 -1 4 9 12 14 13 6 0 -1 -0 2 7 4 -2 -2 3 4 2 3 5 4 -1 -5 -3 2 5 5 5 5 5 6 9 15 18 19 19 16 12 9 7 5 5 6 5 6 7 7 7 8 8 8 7 7 7 7 7 7 7 7 7 10 13 17
11 9 11 15 17 16 13 11 11 9 6 4 6 11 14 11 5 1 2 5 9 9 4 -1 -1 4 10 13 10 4 2 4 8 11 11 8 3 2 3 6 7 6 4 0 -1 3 7 6 4 4 7 10 16 21 23 21 16 12 8 6 6 7 7 7 7 7 8 8 8 8 8 7 7 7 7 7 7 7 7 9 10 14 18 21 24
14 11 9 9 12 16 18 16 13 9 7 7 6 6 11 16 17 14 10 7 7 11 13 9 3 -1 -1 1 5 6 3 1 4 10 13 14 12 10 10 12 13 12 9 6 4 6 8 9 12 17 22 24 24 20 14 10 8 7 7 8 8 8 8 8 8 8 8 8 8 8 8 7 8 8 7 6 7 8 11 14 17 21 23 23 23
18 16 13 9 7 7 9 13 16 16 13 11 9 5 4 6 10 12 13 13 11 8 8 8 9 11 10 7 5 6 7 5 4 7 10 11 12 14 17 20 21 20 18 16 16 18 21 23 23 22 20 16 12 9 8 8 9 9 9 9 9 8 8 8 8 7 7 8 8 8 8 8 8 7 7 9 12 15 18 20 22 22 22 20 18
25 21 18 16 13 9 5 4 6 10 13 15 16 14 11 9 8 7 7 9 12 12 9 4 2 7 15 19 19 17 17 17 15 12 12 13 14 14 16 17 17 18 19 20 21 21 19 17 14 12 10 9 8 9 10 10 9 9 9 8 8 8 8 8 8 8 9 9 9 9 8 7 7 9 12 15 18 20 22 22 21 20 19 17 17
29 27 24 21 19 16 14 11 6 3 2 4 8 12 15 16 17 17 16 14 14 16 16 14 9 4 5 12 18 18 16 16 15 12 10 11 12 13 14 14 15 15 15 15 15 13 11 11 10 9 9 9 10 10 9 9 8 8 8 8 9 9 8 9 9 10 10 9 8 7 7 9 12 15 18 20 22 22 21 19 17 17 16 17 19
26 28 28 28 26 22 19 18 16 13 8 4 3 4 6 9 11 14 16 17 17 17 17 18 18 14 9 9 14 17 16 13 13 13 13 14 14 15 15 15 15 14 12 11 11 10 10 10 9 9 9 10 10 9 9 9 9 9 9 10 9 9 10 10 10 9 8 8 8 10 12 15 17 19 21 21 21 19 17 16 16 16 17 19 21
20 23 25 27 30 30 26 22 20 18 17 15 12 9 6 5 3 4 7 9 10 13 14 14 15 16 13 9 9 12 14 14 12 14 17 17 16 16 17 17 16 15 14 14 13 12 12 11 11 11 11 11 10 10 10 10 10 10 10 10 10 11 11 10 9 9 9 10 13 15 17 18 19 21 21 19 17 15 15 15 16 16 17 19 21
18 17 19 20 23 28 31 31 28 24 20 19 19 18 16 13 10 7 7 6 7 8 10 10 10 11 12 10 7 7 10 12 12 11 11 11 11 11 12 12 12 12 12 12 12 11 11 11 11 11 11 11 11 11 11 11 11 11 11 11 11 10 9 8 9 11 12 14 16 17 18 20 20 19 17 15 14 15 16 16 16 16 16 19 22
23 19 16 16 16 18 22 28 32 31 28 24 21 20 19 19 17 14 12 10 9 9 9 9 9 9 10 11 9 8 10 13 14 13 11 10 10 10 9 9 10 10 10 10 10 10 11 11 11 11 11 11 11 11 11 11 12 11 11 10 9 9 9 10 12 13 14 16 17 18 19 19 17 15 15 15 15 16 16 16 17 16 16 19 24
25 24 19 16 16 15 14 16 21 26 29 29 27 24 22 21 19 17 15 13 12 12 12 11 10 10 10 10 9 8 9 10 11 11 11 10 11 12 11 11 11 11 12 12 12 12 12 13 12 12 11 12 12 12 12 12 11 9 9 8 9 11 12 13 13 14 16 17 18 18 18 16 14 14 15 15 15 16 16 16 17 17 17 20 23
20 24 22 18 16 16 15 13 13 15 20 25 28 29 29 28 26 23 20 17 14 13 14 15 15 13 11 10 10 10 10 9 10 11 10 10 10 10 11 12 12 13 13 13 13 13 13 12 11 12 12 12 12 12 11 10 9 9 9 10 11 12 13 13 14 16 17 18 18 17 15 14 14 15 15 15 16 16 16 16 17 18 19 21 22
17 22 24 21 17 16 17 16 14 12 12 15 19 22 25 27 28 28 28 25 22 18 15 15 16 16 14 13 13 13 12 11 12 13 13 12 11 10 11 13 13 13 12 12 12 12 12 12 11 12 11 11 10 9 8 8 9 11 12 13 13 13 13 14 16 17 17 17 17 15 14 14 15 16 16 16 16 15 15 16 18 18 20 22 22
14 18 23 24 19 16 16 18 18 17 15 13 13 14 16 18 20 23 25 26 26 25 22 18 16 16 16 15 14 14 13 13 14 14 15 15 14 13 13 13 13 13 13 13 13 12 11 11 11 10 9 8 8 9 10 11 13 14 14 13 13 14 15 16 17 17 17 16 15 14 14 15 16 16 16 16 15 14 14 16 17 20 23 24 22
14 15 19 22 21 18 16 16 17 17 16 15 13 12 12 13 14 15 18 20 22 23 24 24 22 20 19 18 17 15 15 14 14 13 13 14 14 15 14 14 14 14 14 13 12 11 10 10 10 9 10 11 12 12 14 15 14 13 13 13 14 16 17 18 17 17 16 16 15 14 15 15 15 15 15 14 13 12 12 12 13 17 23 26 22
15 15 17 19 20 20 18 16 15 15 14 14 14 13 13 14 14 14 14 15 16 18 19 21 22 22 21 20 20 18 17 16 15 15 16 16 16 16 16 15 15 14 12 11 11 10 11 11 12 13 13 13 14 14 14 14 13 13 14 15 17 18 19 19 18 17 17 16 15 14 15 15 15 15 14 13 12 10 9 7 5 7 13 20 22
12 14 15 17 19 20 18 16 15 15 15 15 15 15 14 14 14 15 14 13 14 15 16 16 18 19 19 20 20 19 17 16 16 16 16 16 16 15 15 14 13 12 11 10 10 11 11 12 12 12 12 12 12 13 13 12 12 14 16 18 19 20 20 19 19 17 16 16 15 15 15 16 15 14 13 12 10 8 6 3 -0 -1 1 5 11
9 8 11 14 17 19 19 18 15 15 16 16 16 16 17 15 14 14 15 14 14 15 16 16 16 17 16 17 18 18 16 15 15 15 14 14 14 14 14 12 11 10 10 10 10 11 11 10 10 10 11 11 12 13 11 9 9 14 17 19 20 20 19 18 17 17 16 15 15 14 15 16 16 15 13 11 9 7 4 1 -1 -1 -1 -1 1
Height
5732 5731 5730 5731 5733 5735 5738 5740 5741 5741 5741 5741 5743 5745 5745 5744 5745 5745 5746 5749 5750 5751 5752 5754 5755 5757 5759 5761 5762 5764 5765 5767 5768 5770 5771 5773 5773 5774 5775 5776 5777 5777 5778 5779 5780 5780 5781 5781 5782 5782 5783 5783 5783 5783 5783 5784 5784 5784 5784 5785 5785 5785 5785 5785 5787 5788 5788 5789 5789 5790 5790 5791 5792 5792 5792 5793 5793 5793 5793 5792 5792 5791 5791 5790 5790
5729 5728 5728 5728 5730 5732 5735 5738 5739 5739 5739 5740 5741 5741 5741 5741 5742 5743 5744 5745 5748 5749 5751 5753 5754 5754 5756 5758 5759 5760 5762 5763 5765 5767 5769 5770 5771 5772 5773 5773 5774 5775 5776 5777 5778 5778 5778 5779 5779 5780 5780 5781 5781 5781 5781 5782 5782 5782 5782 5782 5782 5783 5783 5783 5784 5785 5786 5787 5787 5788 5789 5789 5790 5790 5790 5791 5791 5791 5791 5790 5790 5789 5789 5788 5788
5728 5728 5727 5727 5728 5730 5732 5734 5735 5736 5738 5739 5739 5738 5739 5739 5740 5740 5741 5742 5744 5747 5748 5750 5751 5752 5753 5755 5756 5757 5759 5760 5762 5764 5765 5767 5768 5769 5769 5770 5771 5772 5773 5774 5775 5775 5776 5776 5777 5777 5778 5778 5779 5779 5779 5780 5780 5780 5780 5780 5780 5780 5781 5781 5782 5783 5785 5785 5786 5786 5787 5787 5788 5788 5788 5788 5788 5788 5788 5788 5787 5787 5786 5786 5785
5728 5727 5727 5727 5728 5729 5730 5730 5730 5731 5734 5737 5736 5735 5736 5737 5737 5738 5738 5739 5741 5743 5745 5746 5748 5749 5750 5752 5753 5754 5756 5757 5759 5761 5762 5763 5765 5765 5766 5767 5768 5769 5770 5771 5772 5772 5773 5774 5775 5775 5775 5776 5777 5777 5777 5778 5778 5778 5778 5778 5778 5778 5778 5779 5780 5781 5783 5783 5784 5784 5784 5785 5785 5785 5785 5785 5785 5785 5785 5785 5784 5784 5783 5783 5783
5727 5727 5727 5727 5727 5728 5728 5728 5727 5728 5731 5734 5733 5732 5733 5734 5735 5735 5736 5737 5738 5741 5743 5743 5744 5746 5748 5749 5751 5752 5753 5754 5756 5758 5759 5760 5761 5762 5763 5764 5765 5766 5767 5768 5769 5769 5770 5771 5772 5772 5773 5773 5774 5775 5775 5776 5776 5776 5776 5777 5777 5777 5777 5777 5778 5779 5780 5781 5782 5782 5782 5782 5783 5783 5783 5783 5783 5782 5782 5782 5781 5781 5780 5780 5780
5725 5725 5726 5726 5727 5727 5727 5726 5725 5726 5730 5731 5729 5729 5730 5731 5732 5733 5734 5736 5736 5739 5741 5740 5740 5743 5745 5746 5748 5749 5750 5751 5752 5754 5756 5757 5758 5758 5759 5761 5762 5763 5764 5765 5766 5767 5767 5768 5769 5770 5770 5771 5771 5772 5773 5773 5774 5774 5774 5774 5775 5775 5775 5775 5775 5776 5777 5778 5779 5779 5779 5780 5780 5780 5780 5780 5779 5779 5779 5778 5778 5777 5777 5777 5776
5723 5723 5724 5725 5726 5726 5725 5724 5724 5725 5728 5727 5726 5726 5728 5729 5729 5730 5731 5732 5734 5736 5737 5736 5738 5740 5742 5743 5745 5746 5747 5748 5749 5751 5752 5753 5754 5755 5757 5758 5759 5760 5761 5762 5763 5763 5764 5765 5766 5767 5767 5768 5769 5770 5770 5771 5771 5772 5772 5772 5773 5773 5773 5773 5773 5773 5774 5774 5775 5776 5777 5777 5778 5778 5777 5776 5776 5776 5775 5775 5774 5774 5774 5774 5773
5721 5721 5721 5723 5723 5724 5723 5722 5722 5723 5724 5723 5723 5724 5725 5725 5726 5727 5728 5729 5731 5732 5733 5733 5735 5738 5739 5740 5742 5743 5744 5745 5746 5747 5749 5750 5751 5752 5753 5755 5756 5757 5758 5758 5759 5760 5761 5762 5763 5764 5765 5765 5766 5767 5768 5768 5769 5770 5770 5770 5770 5771 5771 5771 5771 5771 5772 5772 5772 5773 5774 5774 5774 5774 5774 5773 5772 5772 5772 5772 5771 5770 5770 5770 5769
5719 5719 5719 5720 5720 5721 5720 5719 5719 5719 5719 5720 5720 5720 5720 5722 5723 5724 5725 5726 5727 5728 5729 5730 5732 5734 5735 5737 5739 5740 5741 5741 5742 5744 5746 5747 5748 5749 5750 5752 5753 5754 5754 5755 5755 5756 5757 5758 5759 5760 5761 5762 5763 5764 5764 5765 5766 5767 5768 5768 5767 5768 5768 5768 5769 5769 5769 5770 5770 5770 5770 5770 5770 5770 5770 5770 5770 5769 5769 5769 5768 5766 5767 5767 5766
5717 5716 5716 5716 5717 5717 5716 5715 5715 5715 5716 5717 5717 5717 5717 5717 5719 5720 5721 5722 5723 5725 5726 5728 5729 5731 5732 5734 5735 5736 5737 5738 5739 5741 5743 5744 5745 5746 5747 5749 5750 5750 5751 5751 5752 5753 5754 5755 5756 5757 5758 5758 5759 5759 5760 5761 5762 5763 5765 5765 5764 5765 5766 5766 5766 5766 5767 5767 5767 5767 5767 5767 5766 5767 5767 5767 5767 5766 5766 5766 5764 5763 5763 5763 5762
5715 5714 5713 5712 5712 5713 5713 5712 5711 5712 5713 5713 5713 5713 5713 5713 5714 5716 5718 5718 5719 5721 5723 5725 5727 5728 5729 5730 5731 5733 5734 5735 5736 5738 5740 5741 5743 5744 5745 5745 5746 5747 5747 5748 5749 5750 5751 5752 5752 5753 5754 5754 5755 5756 5756 5757 5758 5759 5761 5761 5762 5762 5763 5763 5763 5763 5763 5763 5763 5763 5763 5763 5763 5763 5763 5763 5763 5762 5762 5761 5760 5759 5758 5758 5758
5712 5712 5711 5710 5709 5709 5709 5708 5708 5709 5709 5709 5710 5710 5710 5710 5711 5713 5715 5715 5715 5717 5719 5721 5723 5725 5727 5728 5728 5730 5731 5732 5733 5734 5736 5738 5740 5742 5742 5743 5743 5743 5744 5745 5746 5746 5748 5749 5749 5750 5750 5750 5751 5752 5753 5754 5755 5756 5757 5758 5758 5758 5759 5759 5759 5759 5759 5759 5759 5760 5760 5759 5759 5759 5759 5758 5758 5757 5757 5757 5756 5755 5754 5754 5754
5710 5710 5709 5708 5706 5705 5705 5705 5705 5705 5706 5706 5707 5707 5707 5707 5708 5710 5711 5711 5712 5714 5715 5717 5719 5721 5723 5724 5725 5727 5727 5728 5729 5731 5732 5735 5737 5739 5739 5740 5740 5740 5741 5741 5742 5743 5744 5745 5746 5746 5746 5747 5747 5749 5750 5751 5752 5752 5753 5754 5754 5754 5755 5755 5755 5755 5756 5756 5756 5756 5756 5755 5755 5755 5755 5754 5754 5754 5753 5752 5752 5751 5750 5750 5749
5707 5707 5706 5705 5704 5703 5702 5701 5701 5701 5702 5703 5703 5704 5704 5705 5705 5707 5707 5707 5708 5710 5712 5713 5715 5717 5719 5720 5721 5723 5724 5725 5726 5727 5729 5731 5733 5735 5736 5736 5737 5737 5737 5738 5739 5739 5740 5741 5742 5743 5743 5744 5744 5746 5747 5748 5748 5749 5749 5750 5750 5750 5751 5751 5751 5752 5752 5752 5752 5751 5752 5752 5751 5751 5751 5750 5750 5749 5749 5748 5747 5746 5746 5745 5744
5703 5703 5703 5702 5701 5700 5699 5698 5697 5697 5698 5698 5698 5699 5700 5701 5701 5702 5703 5704 5705 5707 5708 5710 5711 5713 5715 5716 5717 5719 5721 5722 5723 5724 5726 5728 5730 5731 5732 5733 5733 5734 5734 5735 5735 5736 5737 5738 5739 5739 5740 5741 5741 5742 5743 5744 5745 5746 5746 5746 5746 5746 5747 5747 5747 5747 5747 5747 5747 5747 5747 5747 5748 5747 5746 5746 5745 5745 5744 5743 5743 5742 5741 5740 5740
5700 5700 5700 5699 5698 5697 5697 5695 5694 5693 5694 5694 5694 5695 5695 5696 5697 5698 5699 5700 5701 5702 5704 5705 5708 5710 5712 5713 5714 5715 5717 5718 5719 5720 5722 5724 5726 5728 5729 5729 5729 5730 5731 5732 5732 5733 5734 5735 5735 5736 5737 5738 5738 5739 5739 5740 5741 5742 5742 5742 5742 5742 5742 5742 5742 5743 5743 5742 5742 5742 5743 5743 5743 5742 5742 5741 5741 5740 5739 5739 5738 5737 5736 5735 5735
5697 5697 5696 5696 5695 5694 5694 5693 5691 5690 5690 5690 5690 5690 5691 5693 5693 5693 5695 5697 5697 5698 5699 5701 5704 5706 5708 5709 5711 5711 5713 5715 5715 5716 5718 5720 5721 5723 5725 5725 5726 5726 5728 5729 5729 5729 5730 5731 5732 5733 5733 5734 5735 5735 5736 5736 5737 5738 5738 5738 5738 5737 5738 5738 5738 5738 5738 5737 5737 5737 5737 5737 5737 5737 5736 5736 5736 5735 5734 5734 5733 5733 5731 5730 5729
5694 5693 5693 5693 5692 5691 5690 5690 5688 5687 5686 5686 5686 5687 5688 5689 5688 5688 5691 5693 5693 5696 5697 5698 5700 5702 5704 5706 5707 5708 5709 5710 5711 5713 5714 5715 5716 5718 5720 5721 5721 5722 5724 5725 5725 5725 5726 5726 5728 5729 5729 5730 5730 5731 5732 5732 5732 5733 5733 5733 5733 5733 5733 5733 5733 5733 5733 5733 5732 5732 5731 5731 5731 5731 5731 5730 5730 5730 5729 5728 5728 5727 5725 5724 5723
5690 5690 5690 5689 5689 5688 5687 5686 5685 5684 5683 5683 5683 5683 5684 5685 5685 5686 5687 5688 5689 5692 5694 5694 5696 5698 5700 5701 5703 5704 5705 5706 5707 5708 5710 5711 5712 5713 5715 5716 5717 5718 5719 5720 5721 5721 5721 5722 5723 5724 5725 5725 5726 5726 5727 5727 5728 5728 5728 5728 5728 5728 5728 5728 5728 5728 5728 5728 5727 5727 5726 5726 5726 5726 5726 5725 5724 5724 5723 5722 5721 5719 5718 5717 5715
5687 5686 5686 5686 5685 5685 5684 5683 5682 5681 5680 5680 5680 5681 5682 5682 5683 5685 5685 5685 5686 5689 5690 5690 5692 5694 5695 5697 5698 5700 5701 5702 5702 5703 5705 5706 5708 5709 5710 5711 5712 5713 5714 5716 5716 5717 5717 5717 5718 5719 5720 5721 5721 5722 5722 5723 5723 5723 5723 5723 5722 5722 5722 5722 5722 5722 5722 5722 5723 5722 5722 5721 5721 5720 5720 5719 5718 5717 5716 5715 5714 5713 5712 5710 5708
5683 5682 5682 5682 5682 5681 5681 5680 5679 5678 5678 5678 5678 5679 5680 5680 5681 5682 5683 5684 5685 5686 5686 5687 5688 5689 5690 5691 5693 5696 5697 5698 5698 5699 5700 5702 5703 5704 5706 5707 5708 5709 5710 5711 5712 5713 5713 5714 5714 5715 5715 5716 5716 5717 5718 5718 5718 5718 5717 5717 5717 5717 5717 5717 5717 5717 5717 5717 5717 5717 5717 5716 5715 5715 5714 5713 5712 5712 5710 5709 5708 5707 5705 5704 5702
5678 5678 5678 5678 5678 5677 5677 5677 5676 5676 5676 5675 5675 5675 5677 5678 5678 5679 5679 5680 5681 5682 5682 5683 5684 5685 5686 5687 5689 5691 5692 5693 5694 5695 5696 5697 5698 5700 5701 5703 5704 5705 5705 5706 5707 5708 5709 5710 5710 5710 5711 5711 5712 5712 5713 5713 5712 5712 5712 5712 5713 5713 5713 5713 5713 5713 5712 5712 5711 5711 5710 5710 5709 5709 5708 5707 5706 5705 5704 5703 5702 5701 5699 5698 5696
5674 5674 5674 5674 5674 5674 5674 5673 5673 5673 5673 5673 5672 5671 5672 5673 5674 5674 5675 5675 5676 5677 5678 5679 5680 5682 5683 5684 5686 5687 5687 5688 5689 5690 5691 5692 5694 5695 5697 5698 5699 5700 5701 5701 5702 5703 5704 5705 5705 5706 5706 5706 5707 5707 5707 5707 5707 5708 5708 5708 5708 5709 5709 5709 5708 5708 5707 5707 5706 5705 5705 5704 5704 5703 5702 5701 5700 5700 5698 5697 5696 5694 5693 5691 5689
5669 5669 5669 5669 5670 5670 5671 5671 5671 5671 5670 5670 5670 5669 5669 5670 5671 5671 5672 5673 5672 5673 5674 5675 5676 5678 5680 5681 5682 5683 5683 5683 5684 5686 5687 5688 5690 5691 5692 5694 5695 5695 5696 5697 5697 5698 5699 5700 5700 5701 5701 5701 5701 5702 5702 5703 5703 5703 5704 5704 5704 5704 5704 5704 5703 5703 5702 5702 5701 5700 5699 5699 5698 5698 5697 5696 5695 5694 5692 5691 5690 5688 5686 5684 5682
5664 5664 5664 5665 5665 5666 5667 5667 5667 5668 5668 5668 5669 5668 5668 5668 5667 5668 5669 5670 5670 5670 5672 5672 5673 5674 5675 5676 5678 5679 5679 5679 5681 5682 5683 5684 5685 5686 5687 5689 5690 5691 5691 5692 5693 5693 5693 5694 5695 5695 5696 5696 5696 5697 5698 5698 5699 5699 5699 5699 5700 5700 5699 5699 5698 5698 5697 5696 5696 5695 5694 5693 5693 5692 5691 5690 5689 5687 5686 5685 5683 5681 5680 5677 5674
5659 5659 5660 5660 5660 5661 5662 5662 5663 5664 5665 5665 5665 5666 5665 5665 5665 5665 5665 5666 5666 5667 5668 5669 5670 5670 5671 5672 5674 5675 5675 5675 5676 5677 5678 5679 5680 5681 5682 5683 5684 5685 5686 5686 5687 5687 5688 5688 5689 5690 5691 5691 5692 5692 5693 5694 5694 5694 5694 5694 5694 5694 5694 5693 5693 5692 5692 5691 5690 5689 5688 5687 5686 5685 5684 5683 5682 5681 5679 5678 5676 5674 5672 5670 5667
5655 5655 5655 5655 5656 5656 5657 5658 5658 5659 5660 5661 5661 5661 5661 5661 5661 5662 5662 5662 5662 5663 5663 5664 5665 5665 5666 5668 5669 5670 5670 5670 5671 5672 5673 5675 5675 5676 5677 5678 5679 5680 5680 5680 5681 5682 5683 5684 5685 5686 5687 5687 5688 5688 5688 5689 5689 5689 5689 5688 5688 5688 5688 5687 5687 5686 5685 5685 5684 5683 5682 5681 5680 5678 5677 5676 5675 5674 5672 5671 5669 5666 5664 5662 5659
5650 5650 5650 5651 5651 5651 5652 5653 5653 5654 5655 5656 5657 5657 5657 5658 5658 5658 5659 5659 5659 5659 5660 5660 5660 5660 5661 5662 5664 5665 5665 5665 5666 5667 5669 5670 5671 5672 5672 5673 5673 5674 5675 5676 5677 5678 5679 5680 5681 5682 5682 5683 5683 5683 5684 5684 5684 5684 5683 5683 5682 5682 5682 5681 5681 5680 5679 5678 5677 5676 5675 5674 5673 5672 5670 5669 5668 5667 5665 5664 5662 5659 5656 5654 5651
5645 5646 5646 5646 5647 5647 5647 5648 5648 5650 5651 5651 5652 5653 5653 5653 5654 5654 5654 5655 5655 5656 5656 5656 5656 5656 5656 5657 5658 5659 5660 5661 5661 5662 5663 5664 5665 5666 5667 5668 5669 5670 5671 5672 5673 5674 5675 5676 5677 5677 5678 5678 5679 5679 5679 5678 5678 5677 5677 5677 5677 5677 5676 5676 5675 5674 5673 5672 5671 5670 5669 5668 5667 5665 5664 5662 5661 5660 5658 5656 5654 5651 5648 5645 5642
5640 5641 5641 5642 5642 5642 5643 5643 5644 5644 5645 5646 5647 5648 5648 5649 5649 5649 5650 5650 5651 5651 5651 5652 5652 5652 5652 5652 5653 5654 5655 5656 5657 5657 5658 5659 5660 5662 5662 5663 5664 5665 5666 5668 5669 5670 5670 5671 5672 5673 5673 5673 5673 5673 5673 5672 5672 5672 5672 5672 5671 5671 5670 5669 5669 5668 5667 5666 5665 5664 5663 5662 5661 5659 5658 5656 5654 5652 5651 5648 5645 5642 5639 5636 5632
5634 5635 5636 5637 5637 5637 5638 5638 5639 5639 5640 5641 5642 5642 5643 5643 5644 5644 5645 5646 5646 5646 5647 5647 5648 5648 5648 5648 5648 5649 5650 5651 5652 5653 5654 5655 5656 5657 5658 5659 5660 5661 5662 5663 5664 5664 5665 5666 5666 5667 5667 5667 5667 5666 5666 5666 5666 5666 5666 5666 5665 5664 5664 5663 5662 5661 5661 5660 5659 5658 5656 5655 5654 5652 5650 5648 5646 5644 5642 5640 5637 5634 5630 5627 5623
5628 5629 5629 5631 5632 5632 5632 5633 5633 5634 5635 5636 5636 5637 5638 5638 5639 5639 5640 5641 5641 5642 5643 5643 5643 5644 5644 5644 5644 5645 5645 5646 5647 5648 5650 5651 5652 5653 5654 5655 5656 5656 5657 5657 5658 5658 5659 5660 5660 5660 5660 5660 5660 5660 5660 5660 5660 5660 5660 5659 5658 5658 5657 5656 5656 5655 5654 5653 5652 5651 5649 5648 5646 5644 5642 5641 5638 5636 5633 5631 5628 5625 5621 5617 5613
5621 5622 5623 5624 5626 5626 5627 5627 5628 5628 5629 5629 5630 5631 5632 5633 5633 5634 5634 5635 5636 5637 5638 5639 5639 5639 5640 5640 5641 5641 5641 5641 5642 5644 5646 5647 5648 5650 5650 5651 5651 5651 5652 5652 5652 5652 5653 5653 5653 5653 5653 5653 5653 5654 5654 5654 5654 5654 5653 5652 5652 5651 5650 5650 5649 5648 5647 5646 5645 5643 5642 5640 5639 5637 5635 5632 5630 5627 5624 5621 5618 5615 5612 5609 5604
5615 5615 5616 5617 5619 5620 5621 5622 5622 5622 5623 5623 5623 5624 5626 5626 5627 5628 5629 5630 5631 5633 5634 5635 5635 5635 5635 5636 5636 5636 5636 5636 5636 5638 5640 5642 5643 5645 5645 5646 5646 5645 5645 5645 5646 5646 5647 5647 5647 5647 5647 5647 5648 5648 5648 5648 5648 5647 5647 5646 5646 5645 5644 5643 5642 5641 5640 5639 5637 5636 5634 5632 5631 5629 5626 5624 5621 5618 5615 5612 5609 5605 5602 5599 5595
5610 5610 5610 5611 5612 5613 5614 5615 5615 5616 5616 5617 5618 5619 5620 5620 5621 5623 5624 5625 5626 5627 5628 5629 5629 5629 5630 5631 5631 5631 5632 5631 5631 5633 5634 5636 5637 5638 5639 5639 5639 5639 5639 5639 5640 5641 5641 5640 5640 5640 5641 5641 5642 5642 5641 5641 5641 5641 5641 5640 5639 5639 5638 5637 5635 5634 5633 5631 5630 5628 5626 5625 5623 5621 5618 5616 5613 5610 5606 5603 5599 5596 5592 5589 5586
5604 5605 5605 5605 5606 5607 5607 5608 5608 5609 5610 5611 5612 5613 5614 5615 5616 5617 5618 5619 5619 5621 5622 5622 5622 5623 5624 5624 5625 5626 5626 5627 5627 5628 5629 5630 5631 5631 5632 5632 5632 5632 5632 5633 5634 5635 5634 5634 5634 5634 5634 5635 5635 5635 5635 5635 5635 5635 5634 5634 5633 5632 5631 5630 5628 5627 5626 5624 5622 5621 5619 5617 5615 5613 5610 5607 5604 5601 5597 5594 5591 5587 5584 5581 5577
5597 5598 5599 5599 5600 5601 5601 5601 5602 5603 5603 5604 5605 5607 5608 5609 5610 5611 5612 5612 5613 5614 5616 5617 5616 5616 5617 5617 5618 5619 5620 5621 5622 5623 5624 5624 5625 5624 5624 5624 5625 5625 5625 5627 5628 5628 5627 5627 5627 5628 5628 5628 5629 5629 5629 5629 5628 5628 5627 5627 5626 5625 5624 5623 5621 5620 5619 5617 5615 5614 5612 5609 5607 5604 5601 5598 5595 5592 5589 5586 5582 5579 5576 5573 5570
5591 5591 5591 5592 5593 5593 5594 5594 5596 5597 5597 5598 5599 5600 5601 5602 5603 5604 5605 5606 5607 5608 5609 5610 5610 5610 5610 5611 5611 5612 5613 5614 5615 5616 5617 5618 5618 5617 5617 5618 5618 5618 5619 5620 5621 5621 5620 5621 5621 5621 5622 5622 5622 5622 5622 5622 5622 5621 5620 5620 5619 5618 5617 5616 5615 5613 5612 5610 5608 5606 5604 5601 5598 5596 5593 5591 5588 5585 5581 5578 5575 5572 5569 5566 5563
5585 5585 5584 5584 5585 5586 5586 5587 5589 5590 5591 5592 5593 5594 5595 5596 5597 5597 5598 5599 5600 5600 5601 5603 5603 5604 5604 5604 5604 5605 5606 5607 5608 5610 5611 5611 5611 5610 5611 5612 5612 5613 5613 5613 5614 5614 5614 5615 5615 5616 5616 5616 5616 5616 5616 5615 5615 5614 5614 5613 5612 5611 5610 5609 5608 5606 5605 5602 5600 5598 5596 5594 5591 5589 5587 5584 5581 5578 5575 5572 5569 5566 5563 5560 5557
5579 5579 5578 5578 5578 5579 5579 5580 5581 5582 5584 5585 5587 5588 5588 5589 5590 5590 5591 5592 5593 5593 5594 5595 5596 5597 5598 5598 5598 5598 5599 5601 5602 5604 5605 5605 5604 5604 5605 5606 5607 5607 5607 5608 5608 5609 5609 5609 5610 5610 5611 5610 5610 5610 5610 5609 5609 5608 5608 5607 5606 5605 5604 5602 5601 5599 5597 5595 5593 5591 5589 5587 5585 5582 5580 5577 5574 5571 5569 5566 5563 5561 5558 5555 5552
5574 5574 5573 5572 5572 5572 5573 5574 5574 5575 5577 5578 5579 5580 5581 5582 5583 5584 5585 5586 5586 5587 5588 5589 5590 5591 5592 5592 5591 5592 5593 5595 5597 5598 5599 5598 5598 5599 5600 5601 5602 5602 5602 5603 5603 5603 5604 5604 5605 5605 5605 5605 5604 5604 5604 5603 5603 5602 5601 5601 5599 5598 5597 5595 5594 5592 5591 5589 5587 5586 5583 5581 5578 5576 5573 5571 5568 5566 5564 5561 5558 5556 5553 5551 5548
5570 5570 5569 5568 5567 5567 5567 5568 5568 5569 5570 5571 5571 5573 5574 5575 5576 5577 5579 5579 5580 5581 5581 5583 5584 5585 5585 5586 5586 5587 5587 5589 5591 5593 5593 5592 5593 5594 5594 5595 5596 5596 5596 5597 5597 5598 5598 5599 5599 5599 5599 5599 5599 5598 5598 5597 5597 5596 5595 5594 5593 5592 5590 5589 5588 5587 5585 5583 5581 5579 5577 5574 5572 5570 5568 5566 5564 5561 5559 5557 5554 5552 5549 5546 5543
5567 5566 5565 5564 5563 5563 5563 5563 5563 5564 5564 5564 5565 5566 5567 5568 5569 5570 5572 5573 5574 5574 5575 5576 5578 5579 5579 5580 5581 5582 5583 5584 5585 5587 5587 5587 5587 5588 5589 5589 5590 5590 5591 5591 5592 5592 5593 5593 5593 5593 5593 5593 5593 5592 5592 5591 5591 5590 5589 5588 5587 5586 5585 5584 5583 5581 5579 5577 5575 5573 5571 5568 5567 5565 5563 5561 5559 5557 5555 5552 5550 5547 5545 5542 5539
5564 5562 5561 5560 5560 5559 5559 5558 5559 5559 5559 5559 5559 5560 5560 5561 5562 5563 5565 5566 5567 5568 5569 5570 5572 5573 5574 5574 5575 5576 5577 5578 5579 5581 5582 5582 5582 5583 5584 5584 5585 5585 5585 5586 5586 5587 5588 5588 5588 5588 5588 5588 5587 5587 5586 5585 5585 5584 5583 5582 5581 5580 5579 5578 5577 5575 5573 5571 5569 5567 5565 5564 5562 5560 5558 5557 5555 5552 5550 5548 5546 5543 5540 5538 5536
5561 5559 5558 5557 5556 5556 5555 5555 5555 5555 5555 5555 5555 5555 5555 5556 5556 5557 5558 5559 5561 5562 5563 5564 5565 5567 5568 5568 5569 5571 5572 5572 5573 5575 5576 5577 5577 5578 5579 5579 5580 5580 5581 5581 5582 5582 5583 5583 5583 5583 5583 5582 5582 5581 5581 5580 5579 5579 5578 5577 5576 5575 5574 5573 5571 5569 5568 5566 5564 5563 5561 5560 5558 5556 5554 5552 5551 5548 5546 5544 5541 5539 5536 5534 5532
5558 5557 5555 5554 5553 5552 5552 5551 5551 5551 5551 5551 5551 5551 5551 5551 5551 5552 5553 5554 5555 5556 5557 5558 5560 5561 5562 5563 5565 5566 5567 5567 5568 5569 5570 5571 5572 5573 5574 5574 5575 5576 5576 5576 5577 5577 5578 5578 5578 5578 5577 5577 5577 5576 5576 5575 5574 5574 5573 5572 5572 5570 5569 5567 5566 5564 5563 5561 5560 5558 5557 5555 5554 5552 5550 5549 5547 5545 5542 5540 5538 5535 5533 5531 5529
5556 5554 5553 5551 5550 5549 5549 5548 5548 5548 5547 5547 5547 5546 5547 5547 5547 5547 5548 5549 5550 5551 5552 5553 5554 5555 5556 5558 5560 5561 5562 5563 5563 5564 5565 5566 5567 5568 5569 5570 5570 5571 5572 5572 5572 5573 5573 5573 5573 5573 5573 5572 5572 5571 5571 5570 5570 5569 5569 5568 5567 5566 5564 5562 5561 5560 5558 5557 5556 5554 5553 5551 5550 5548 5547 5545 5543 5541 5539 5537 5535 5532 5530 5528 5526
5553 5552 5550 5549 5547 5546 5546 5546 5545 5544 5544 5543 5543 5542 5543 5543 5543 5543 5544 5544 5545 5546 5547 5548 5549 5550 5551 5553 5555 5556 5557 5558 5558 5560 5561 5562 5563 5564 5565 5565 5566 5567 5567 5568 5568 5568 5569 5569 5569 5568 5568 5568 5568 5567 5567 5567 5566 5565 5564 5563 5562 5561 5559 5558 5557 5555 5554 5553 5552 5550 5549 5547 5546 5544 5543 5541 5540 5538 5536 5534 5532 5530 5528 5526 5524
5551 5549 5548 5546 5545 5544 5543 5542 5542 5541 5541 5540 5540 5539 5539 5540 5540 5540 5540 5541 5541 5542 5543 5544 5545 5546 5547 5548 5550 5551 5552 5553 5554 5555 5556 5557 5558 5559 5560 5561 5562 5563 5563 5564 5564 5564 5564 5565 5564 5564 5564 5564 5564 5564 5564 5563 5562 5561 5560 5559 5557 5556 5555 5554 5552 5551 5550 5549 5548 5546 5545 5543 5542 5541 5539 5538 5536 5535 5534 5532 5530 5528 5526 5524 5522
5548 5547 5545 5544 5543 5541 5540 5540 5539 5538 5537 5537 5537 5536 5536 5536 5536 5536 5537 5537 5537 5538 5539 5540 5541 5542 5543 5544 5545 5546 5547 5548 5550 5551 5552 5553 5554 5555 5556 5558 5558 5559 5559 5560 5560 5560 5561 5561 5561 5561 5561 5561 5561 5560 5560 5559 5558 5557 5556 5555 5553 5552 5551 5550 5549 5548 5546 5545 5544 5542 5541 5540 5538 5537 5536 5534 5533 5532 5531 5530 5528 5527 5525 5523 5522
5546 5545 5543 5542 5541 5539 5538 5537 5536 5535 5535 5534 5534 5534 5533 5533 5533 5533 5533 5534 5534 5535 5535 5536 5537 5538 5539 5540 5541 5542 5543 5544 5546 5547 5548 5549 5550 5551 5553 5554 5554 5555 5556 5556 5557 5557 5557 5558 5558 5558 5558 5558 5557 5557 5556 5556 5555 5554 5552 5551 5550 5548 5547 5546 5545 5544 5542 5541 5540 5538 5537 5536 5534 5533 5532 5531 5530 5529 5529 5528 5526 5525 5524 5522 5521